#timestamp,LO_Frequency,Hit,StdDev 
1541343615.8,286047003.9,N
1541343635.6,286047001.4,N
1541343655.5,286047004.4,N
1541343675.3,286047002.2,N
1541343695.1,286047000.4,N
1541343715.9,286047001.0,N
1541343735.7,286047000.0,N
1541343755.6,286047002.0,N
1541343775.4,286047002.7,N
1541343795.2,286047002.0,N
1541343815.1,286047002.7,N
1541343816.0,286047002.7,N
1541343835.8,286047000.9,N
1541343855.6,286046998.7,N
1541343875.5,286046998.2,N
1541343895.3,286047000.9,N
1541343915.2,286046999.3,N
1541343935.9,286046999.1,N
1541343955.7,286046997.3,N
1541343975.6,286046996.5,N
1541343995.4,286046997.6,N
1541344015.2,286046997.2,N
1541344035.1,286046997.1,N
1541344036.0,286046997.1,N
1541344055.8,286046999.1,N
1541344075.7,286046999.5,N
1541344095.5,286046997.2,N
1541344115.3,286046997.5,N
1541344135.2,286046995.2,N
1541344155.0,286046997.9,N
1541344155.9,286046997.9,N
1541344175.7,286046998.0,N
1541344195.6,286046995.4,N
1541344215.4,286046995.0,N
1541344235.3,286046995.0,N
1541344255.1,286046998.3,N
1541344256.0,286046998.3,N
1541344275.8,286046997.1,N
1541344295.7,286046996.0,N
1541344315.5,286046995.7,N
1541344335.3,286046994.2,N
1541344355.2,286046993.9,Y
1541344375.0,286046995.1,P
1541344375.9,286046995.1,P
1541344395.8,286046993.3,P
1541344415.6,286046992.1,Y
1541344435.4,286046998.9,P
1541344455.3,286047000.3,N
1541344475.1,286047004.1,N
1541344495.8,286047004.0,N
1541344515.7,286047001.3,N
1541344535.5,286047001.3,N
1541344555.4,286047001.6,N
1541344575.2,286047002.0,N
1541344595.0,286047003.8,N
1541344595.9,286047003.8,N
1541344615.8,286047003.7,N
1541344635.6,286047003.2,N
1541344655.4,286047003.5,N
1541344675.3,286047003.4,N
1541344695.1,286047003.2,N
1541344715.9,286047003.8,N
1541344735.7,286047003.6,N
1541344755.5,286047005.9,N
1541344775.4,286047003.5,N
1541344795.2,286047006.0,N
1541344815.0,286047004.9,N
1541344815.9,286047004.9,N
1541344835.8,286047006.8,N
1541344855.6,286047005.0,N
1541344875.4,286047005.3,N
1541344895.3,286047005.9,N
1541344915.1,286047005.4,N
1541344935.9,286047005.7,N
1541344955.7,286047005.0,N
1541344975.5,286047004.1,N
1541344995.4,286047001.4,N
1541345015.2,286047002.1,N
1541345035.0,286047001.3,N
1541345035.9,286047001.3,N
1541345055.8,286047003.9,N
1541345075.6,286047003.7,N
1541345095.5,286047004.3,N
1541345115.3,286047003.1,N
1541345135.1,286047004.6,Y
1541345155.9,286047001.3,P
1541345175.7,286047002.2,N
1541345195.5,286047004.4,P
1541345215.4,286047002.1,N
1541345235.2,286047002.4,N
1541345255.1,286047002.1,N
1541345256.0,286047002.1,N
1541345275.8,286047002.1,N
1541345295.6,286047002.2,N
1541345315.5,286047000.1,N
1541345335.3,286046999.4,N
1541345355.1,286046996.5,N
1541345375.9,286046998.3,N
1541345395.7,286046997.4,N
1541345415.6,286046995.4,N
1541345435.4,286046995.0,N
1541345455.2,286046994.9,N
1541345475.1,286046997.7,N
1541345476.0,286046997.7,N
1541345495.8,286046997.2,N
1541345515.6,286046999.5,N
1541345535.5,286046998.6,N
1541345555.3,286047001.2,N
1541345575.2,286047000.8,N
1541345595.9,286046999.0,N
1541345615.7,286046999.5,N
1541345635.6,286046998.9,N
1541345655.4,286046996.5,N
1541345675.2,286046999.5,N
1541345695.1,286046998.6,N
1541345696.0,286046998.6,N
1541345715.8,286046996.6,N
1541345735.7,286046997.1,N
1541345755.5,286046999.2,N
1541345775.3,286046996.9,N
1541345795.2,286046999.6,N
1541345815.0,286046996.9,N
1541345815.9,286046996.9,N
1541345835.8,286046996.7,N
1541345855.6,286046996.9,N
1541345875.4,286046999.4,N
1541345895.3,286046998.7,N
1541345915.1,286046998.2,N
1541345935.8,286046999.5,N
1541345955.7,286046999.0,N
1541345975.5,286046997.4,N
1541345995.4,286046997.2,N
1541346015.2,286046997.5,N
1541346035.0,286046999.1,N
1541346035.9,286046999.1,N
1541346055.8,286046997.0,N
1541346075.6,286046996.8,N
1541346095.4,286046997.4,N
1541346115.3,286046996.1,Y
1541346135.1,286046996.5,P
1541346155.9,286046996.8,P
1541346175.7,286046996.8,P
1541346195.5,286046994.9,Y
1541346215.4,286046998.3,P
1541346235.2,286046999.0,N
1541346255.0,286046996.6,P
1541346256.0,286046996.6,Y
1541346275.8,286047001.1,P
1541346295.6,286046998.5,N
1541346315.5,286047000.2,N
1541346335.3,286047001.5,N
1541346355.1,286047001.7,N
1541346375.9,286047001.8,N
1541346395.7,286047004.1,N
1541346415.6,286047004.2,N
1541346435.4,286047004.3,N
1541346455.2,286047001.8,N
1541346475.1,286047003.7,N
1541346476.0,286047003.7,N
1541346495.8,286047001.7,N
1541346515.6,286047005.7,N
1541346535.5,286047006.2,N
1541346555.3,286047006.2,N
1541346575.2,286047009.9,Y
1541346595.9,286047005.6,P
1541346615.7,286047004.0,N
1541346635.6,286047001.3,N
1541346655.4,286047003.9,N
1541346675.2,286047004.6,Y
1541346695.1,286047003.7,P
1541346696.0,286047003.7,P
1541346715.8,286047004.8,P
1541346735.7,286047007.5,Y
1541346755.5,286047004.2,P
1541346775.3,286047003.1,P
1541346795.2,286047005.4,P
1541346815.0,286047006.1,Y
1541346815.9,286047006.1,P
1541346835.8,286047008.3,P
1541346855.6,286047010.2,P
1541346875.4,286047010.3,Y
1541346895.3,286047004.3,P
1541346915.1,286047003.9,N
1541346935.8,286047004.4,N
1541346955.7,286047002.1,N
1541346975.5,286047002.1,N
1541346995.3,286047000.3,N
1541347015.2,286047001.9,N
1541347035.0,286047003.8,N
1541347035.9,286047003.8,N
1541347055.8,286047003.0,N
1541347075.6,286047003.1,N
1541347095.4,286047003.1,N
1541347115.3,286047006.0,Y
1541347135.1,286047002.3,P
1541347155.9,286046999.8,N
1541347175.7,286047002.7,N
1541347195.5,286047005.0,Y
